Location: Newark
(35.2672°N, 80.7344°W)
Time: 05:40:37
(UTC+00:00)

Vanguard 2 Rocket - Pass Details

Date: 25 January 2020
Orbit: 553 x 3327 km, 32.9° (Epoch: 27 February)

Event Time Altitude Azimuth Distance (km) Brightness Sun altitude
Rises 13:52:33 0° 275° (W) 3,414 9.3 14.3°
Reaches altitude 10° 13:54:37 10° 271° (W) 2,692 8.9 14.7°
Maximum altitude 14:01:02 61° 193° (SSW) 1,527 8.5 15.7°
Drops below altitude 10° 14:12:35 10° 117° (ESE) 4,675 12.5 17.5°
Sets 14:17:21 0° 114° (ESE) 6,125 12.6 18.3°
